{"data":{"norad_id":57765,"epoch":"2026-09-22T18:34:22.041408Z","epoch_age_seconds":109610,"freshness":"FRESH","line1":"1 57765U 23133J   26265.77386622  .00000063  00000+0  45390-4 0  9997","line2":"2 57765  81.0001 274.3125 0007137 108.3333 251.8600 13.85441834154536","mean_motion":13.85441834,"eccentricity":0.0007137,"inclination_deg":81.0001,"raan_deg":274.3125,"arg_perigee_deg":108.3333,"mean_anomaly_deg":251.86,"bstar":4.539e-5,"rev_number":15453,"period_min":103.93796149799,"perigee_km":939.42217646262,"apogee_km":949.87472041172,"semimajor_km":7322.7854484372,"source":"CELESTRAK","updated_at":"2026-09-23T09:00:18.339246Z"}}